• En España
  • Lista de países
  • Para 7 días
  • Temperatura del agua
  • Mapa Satelital
  • El tiempo en el mapa
  • Informadores
  • user-avatar
    Iniciar sesión

    Tiempo cada hora Dmitrovskiy

    Hoy, 20 Julio, Viernes

    Tiempo Temperatura Precipitaciones Viento Presión Humedad
    00:00 +19°C° 0 mm 1 mps 734 mmHg 95%
    01:00 +17°C° 0 mm 0 mps 734 mmHg 95%
    02:00 +17°C° 0 mm 0 mps 734 mmHg 96%
    03:00 +17°C° 0 mm 0 mps 734 mmHg 96%
    04:00 +17°C° 0 mm 0 mps 734 mmHg 96%
    05:00 +18°C° 0 mm 0 mps 735 mmHg 96%
    06:00 +21°C° 0 mm 1 mps 735 mmHg 92%
    07:00 +22°C° 0 mm 1 mps 735 mmHg 89%
    08:00 +23°C° 0 mm 1 mps 735 mmHg 86%
    09:00 +24°C° 0,2 mm 1 mps 735 mmHg 82%
    10:00 +25°C° 0,2 mm 1 mps 735 mmHg 77%
    11:00 +26°C° 0,2 mm 2 mps 735 mmHg 73%
    12:00 +26°C° 0,1 mm 2 mps 735 mmHg 71%
    13:00 +27°C° 0,1 mm 2 mps 735 mmHg 70%
    14:00 +27°C° 0,1 mm 2 mps 735 mmHg 68%
    15:00 +27°C° 0,1 mm 2 mps 735 mmHg 70%
    16:00 +27°C° 0,1 mm 2 mps 735 mmHg 71%
    17:00 +27°C° 0,1 mm 2 mps 735 mmHg 73%
    18:00 +25°C° 0 mm 1 mps 735 mmHg 78%
    19:00 +24°C° 0 mm 1 mps 735 mmHg 82%
    20:00 +22°C° 0 mm 1 mps 735 mmHg 87%
    21:00 +22°C° 0 mm 1 mps 735 mmHg 87%
    22:00 +21°C° 0 mm 1 mps 735 mmHg 88%
    23:00 +21°C° 0 mm 1 mps 736 mmHg 89%

    Mañana, 21 Julio, Sábado

    Tiempo Temperatura Precipitaciones Viento Presión Humedad
    00:00 +21°C° 0 mm 1 mps 736 mmHg 90%
    01:00 +19°C° 0 mm 0 mps 736 mmHg 90%
    02:00 +18°C° 0 mm 0 mps 736 mmHg 91%
    03:00 +18°C° 0,1 mm 0 mps 736 mmHg 91%
    04:00 +19°C° 0,1 mm 0 mps 736 mmHg 91%
    05:00 +19°C° 0,1 mm 0 mps 736 mmHg 91%
    06:00 +20°C° 0,5 mm 0 mps 736 mmHg 87%
    07:00 +21°C° 0,5 mm 0 mps 736 mmHg 84%
    08:00 +23°C° 0,5 mm 0 mps 736 mmHg 80%
    09:00 +26°C° 0,1 mm 1 mps 736 mmHg 75%
    10:00 +27°C° 0,1 mm 1 mps 736 mmHg 71%
    11:00 +27°C° 0,1 mm 1 mps 736 mmHg 66%
    12:00 +28°C° 0 mm 1 mps 736 mmHg 64%
    13:00 +28°C° 0 mm 1 mps 736 mmHg 61%
    14:00 +29°C° 0 mm 1 mps 736 mmHg 59%
    15:00 +29°C° 0,3 mm 1 mps 736 mmHg 61%
    16:00 +29°C° 0,3 mm 1 mps 736 mmHg 64%
    17:00 +28°C° 0,3 mm 1 mps 736 mmHg 67%
    18:00 +27°C° 0,1 mm 1 mps 736 mmHg 72%
    19:00 +25°C° 0,1 mm 1 mps 736 mmHg 77%
    20:00 +23°C° 0,1 mm 1 mps 736 mmHg 83%
    21:00 +23°C° 0,1 mm 1 mps 736 mmHg 85%
    22:00 +22°C° 0,1 mm 1 mps 736 mmHg 86%
    23:00 +22°C° 0,1 mm 1 mps 736 mmHg 88%

    Pasado mañana, 22 Julio, Domingo

    Tiempo Temperatura Precipitaciones Viento Presión Humedad
    00:00 +21°C° 0 mm 1 mps 736 mmHg 89%
    01:00 +21°C° 0 mm 1 mps 736 mmHg 89%
    02:00 +19°C° 0 mm 0 mps 736 mmHg 90%
    03:00 +19°C° 0,1 mm 0 mps 736 mmHg 90%
    04:00 +19°C° 0,1 mm 0 mps 736 mmHg 90%
    05:00 +19°C° 0,1 mm 0 mps 736 mmHg 90%
    06:00 +23°C° 0,1 mm 1 mps 736 mmHg 86%
    07:00 +24°C° 0,1 mm 1 mps 736 mmHg 82%
    08:00 +26°C° 0,1 mm 1 mps 736 mmHg 78%
    09:00 +26°C° 0,7 mm 1 mps 736 mmHg 75%
    10:00 +27°C° 0,7 mm 2 mps 736 mmHg 72%
    11:00 +28°C° 0,7 mm 2 mps 736 mmHg 68%
    12:00 +28°C° 1,1 mm 2 mps 736 mmHg 69%
    13:00 +28°C° 1,1 mm 2 mps 736 mmHg 69%
    14:00 +28°C° 1,1 mm 2 mps 736 mmHg 70%
    15:00 +28°C° 1,1 mm 2 mps 735 mmHg 72%
    16:00 +28°C° 1,1 mm 1 mps 735 mmHg 74%
    17:00 +27°C° 1,1 mm 1 mps 735 mmHg 76%
    18:00 +26°C° 0,6 mm 1 mps 735 mmHg 81%
    19:00 +24°C° 0,6 mm 1 mps 735 mmHg 85%
    20:00 +23°C° 0,6 mm 2 mps 735 mmHg 89%
    21:00 +23°C° 0,5 mm 2 mps 735 mmHg 91%
    22:00 +21°C° 0,5 mm 2 mps 735 mmHg 93%
    23:00 +21°C° 0,5 mm 2 mps 735 mmHg 94%

    23 Julio, Lunes

    Tiempo Temperatura Precipitaciones Viento Presión Humedad
    00:00 +20°C° 0,2 mm 2 mps 735 mmHg 95%
    01:00 +20°C° 0,2 mm 2 mps 735 mmHg 96%
    02:00 +19°C° 0,2 mm 2 mps 735 mmHg 97%
    03:00 +19°C° 0,1 mm 2 mps 736 mmHg 97%
    04:00 +19°C° 0,1 mm 2 mps 736 mmHg 97%
    05:00 +19°C° 0,1 mm 2 mps 736 mmHg 98%
    06:00 +20°C° 0 mm 2 mps 736 mmHg 96%
    07:00 +20°C° 0 mm 3 mps 736 mmHg 94%
    08:00 +21°C° 0 mm 3 mps 736 mmHg 93%
    09:00 +21°C° 0 mm 3 mps 736 mmHg 92%
    10:00 +21°C° 0 mm 3 mps 737 mmHg 91%
    11:00 +21°C° 0 mm 3 mps 737 mmHg 90%
    12:00 +21°C° 0,1 mm 3 mps 737 mmHg 89%
    13:00 +22°C° 0,1 mm 3 mps 737 mmHg 88%
    14:00 +22°C° 0,1 mm 3 mps 737 mmHg 87%
    15:00 +22°C° 0 mm 3 mps 737 mmHg 86%
    16:00 +22°C° 0 mm 3 mps 737 mmHg 85%
    17:00 +22°C° 0 mm 3 mps 737 mmHg 83%
    18:00 +21°C° 0 mm 2 mps 738 mmHg 86%
    19:00 +21°C° 0 mm 2 mps 738 mmHg 89%
    20:00 +20°C° 0 mm 2 mps 738 mmHg 91%
    21:00 +19°C° 0 mm 2 mps 738 mmHg 92%
    22:00 +19°C° 0 mm 2 mps 738 mmHg 94%
    23:00 +18°C° 0 mm 2 mps 738 mmHg 95%

    24 Julio, Martes

    Tiempo Temperatura Precipitaciones Viento Presión Humedad
    00:00 +18°C° 0 mm 2 mps 738 mmHg 95%
    01:00 +18°C° 0 mm 2 mps 738 mmHg 96%
    02:00 +18°C° 0 mm 2 mps 739 mmHg 97%
    03:00 +18°C° 0 mm 2 mps 739 mmHg 97%
    04:00 +18°C° 0 mm 2 mps 739 mmHg 97%
    05:00 +18°C° 0 mm 2 mps 739 mmHg 97%
    06:00 +19°C° 0 mm 2 mps 740 mmHg 94%
    07:00 +20°C° 0 mm 3 mps 740 mmHg 90%
    08:00 +22°C° 0 mm 3 mps 740 mmHg 86%
    09:00 +22°C° 0 mm 3 mps 740 mmHg 83%
    10:00 +24°C° 0 mm 3 mps 740 mmHg 79%
    11:00 +25°C° 0 mm 3 mps 740 mmHg 76%
    12:00 +25°C° 0,1 mm 3 mps 740 mmHg 73%
    13:00 +26°C° 0,1 mm 2 mps 740 mmHg 71%
    14:00 +27°C° 0,1 mm 2 mps 740 mmHg 68%
    15:00 +27°C° 0,1 mm 2 mps 740 mmHg 68%
    16:00 +27°C° 0,1 mm 1 mps 740 mmHg 69%
    17:00 +27°C° 0,1 mm 1 mps 740 mmHg 69%
    18:00 +25°C° 0,2 mm 1 mps 741 mmHg 75%
    19:00 +23°C° 0,2 mm 1 mps 741 mmHg 81%
    20:00 +22°C° 0,2 mm 1 mps 741 mmHg 86%
    21:00 +22°C° 0 mm 1 mps 741 mmHg 88%
    22:00 +21°C° 0 mm 1 mps 741 mmHg 89%
    23:00 +21°C° 0 mm 1 mps 741 mmHg 90%

    25 Julio, Miércoles

    Tiempo Temperatura Precipitaciones Viento Presión Humedad
    00:00 +20°C° 0,1 mm 1 mps 741 mmHg 91%
    01:00 +20°C° 0,1 mm 1 mps 741 mmHg 92%
    02:00 +20°C° 0,1 mm 1 mps 741 mmHg 93%
    03:00 +19°C° 0,5 mm 2 mps 741 mmHg 94%
    04:00 +19°C° 0,5 mm 2 mps 741 mmHg 94%
    05:00 +19°C° 0,5 mm 3 mps 742 mmHg 94%
    06:00 +20°C° 0,2 mm 3 mps 742 mmHg 92%
    07:00 +20°C° 0,2 mm 3 mps 742 mmHg 89%
    08:00 +21°C° 0,2 mm 4 mps 742 mmHg 87%
    09:00 +21°C° 0,4 mm 4 mps 742 mmHg 86%
    10:00 +21°C° 0,4 mm 4 mps 742 mmHg 85%
    11:00 +22°C° 0,4 mm 4 mps 742 mmHg 84%
    12:00 +21°C° 0,7 mm 4 mps 742 mmHg 85%
    13:00 +21°C° 0,7 mm 3 mps 742 mmHg 87%
    14:00 +20°C° 0,7 mm 3 mps 742 mmHg 88%
    15:00 +20°C° 0,6 mm 2 mps 742 mmHg 90%
    16:00 +19°C° 0,6 mm 2 mps 742 mmHg 92%
    17:00 +20°C° 0,6 mm 1 mps 742 mmHg 93%
    18:00 +20°C° 0,2 mm 1 mps 742 mmHg 94%
    19:00 +19°C° 0,2 mm 1 mps 742 mmHg 95%
    20:00 +19°C° 0,2 mm 1 mps 742 mmHg 96%
    21:00 +19°C° 0,2 mm 1 mps 742 mmHg 95%
    22:00 +19°C° 0,2 mm 1 mps 742 mmHg 95%
    23:00 +19°C° 0,2 mm 1 mps 742 mmHg 95%
    Mostrar más